,,,PA_Meas_PMT16A,,PR_Meas_QMR101_102,,RH_Meas_QMH101,,SR_Meas_QMS101,,TA_Meas_QMH101,,GenWind,,GenWind,
date,time,status,PA,status,PR,status,RH,status,SR,status,TA,status,DirAvg,status,SpdAvg,
2010-11-09, 00:00:04,VALID,1010.58,VALID,0,VALID,103.535,VALID,0,VALID,23.9084,VALID,126,VALID,0.576563,
2010-11-09, 00:01:04,VALID,1010.59,VALID,0,VALID,103.542,VALID,0,VALID,23.9278,VALID,170,VALID,0.578516,
2010-11-09, 00:02:04,VALID,1010.56,VALID,0,VALID,103.52,VALID,0,VALID,23.9297,VALID,170,VALID,0.469141,
2010-11-09, 00:03:04,VALID,1010.57,VALID,0,VALID,103.527,VALID,0,VALID,23.9084,VALID,151,VALID,0.623438,
2010-11-09, 00:04:04,VALID,1010.56,VALID,0,VALID,103.55,VALID,0,VALID,23.9084,VALID,132,VALID,0.672266,
2010-11-09, 00:05:04,VALID,1010.56,VALID,0,VALID,103.558,VALID,0,VALID,23.8889,VALID,125,VALID,0.708594,
2010-11-09, 00:06:04,VALID,1010.59,VALID,0,VALID,103.558,VALID,0,VALID,23.8907,VALID,125,VALID,0.460547,
2010-11-09, 00:07:04,VALID,1010.54,VALID,0,VALID,103.581,VALID,0,VALID,23.8907,VALID,125,VALID,0.579297,
2010-11-09, 00:08:04,VALID,1010.58,VALID,0,VALID,103.588,VALID,0.105969,VALID,23.8871,VALID,124,VALID,0.490234,
2010-11-09, 00:09:04,VALID,1010.56,VALID,0,VALID,103.588,VALID,0,VALID,23.9084,VALID,109,VALID,0.874219,
2010-11-09, 00:10:04,VALID,1010.58,VALID,0,VALID,103.588,VALID,0.105969,VALID,23.8889,VALID,105,VALID,0.924609,
2010-11-09, 00:11:04,VALID,1010.58,VALID,0,VALID,103.596,VALID,0,VALID,23.8889,VALID,116,VALID,0.73125,
2010-11-09, 00:12:04,VALID,1010.58,VALID,0,VALID,103.619,VALID,0,VALID,23.8889,VALID,116,VALID,0.724609,
2010-11-09, 00:13:04,VALID,1010.58,VALID,0,VALID,103.596,VALID,0,VALID,23.8889,VALID,116,VALID,0.657812,
2010-11-09, 00:14:04,VALID,1010.55,VALID,0,VALID,103.634,VALID,0,VALID,23.8871,VALID,118,VALID,0.588281,
2010-11-09, 00:15:04,VALID,1010.56,VALID,0,VALID,103.642,VALID,0.105969,VALID,23.9084,VALID,146,VALID,1.14023,
2010-11-09, 00:16:04,VALID,1010.54,VALID,0,VALID,103.611,VALID,0,VALID,23.8694,VALID,135,VALID,0.910937,
2010-11-09, 00:17:04,VALID,1010.56,VALID,0,VALID,103.619,VALID,0,VALID,23.8676,VALID,139,VALID,0.694922,
2010-11-09, 00:18:04,VALID,1010.55,VALID,0,VALID,103.634,VALID,0,VALID,23.8694,VALID,140,VALID,0.901953,
2010-11-09, 00:19:04,VALID,1010.54,VALID,0,VALID,103.634,VALID,0.105969,VALID,23.8286,VALID,135,VALID,0.877734,
2010-11-09, 00:20:04,VALID,1010.55,VALID,0,VALID,103.619,VALID,0,VALID,23.8481,VALID,130,VALID,0.690625,
2010-11-09, 00:21:04,VALID,1010.53,VALID,0,VALID,103.626,VALID,0,VALID,23.8286,VALID,129,VALID,0.123438,
2010-11-09, 00:22:04,VALID,1010.53,VALID,0,VALID,103.634,VALID,0,VALID,23.8694,VALID,123,VALID,0.434766,
2010-11-09, 00:23:04,VALID,1010.52,VALID,0,VALID,103.634,VALID,0,VALID,23.8499,VALID,94,VALID,0.357031,
2010-11-09, 00:24:04,VALID,1010.52,VALID,0,VALID,103.642,VALID,0.105969,VALID,23.8286,VALID,94,VALID,0.0226563,
2010-11-09, 00:25:04,VALID,1010.51,VALID,0,VALID,103.642,VALID,0,VALID,23.8481,VALID,94,VALID,0.335547,
2010-11-09, 00:26:04,VALID,1010.51,VALID,0,VALID,103.657,VALID,0.105969,VALID,23.8481,VALID,71,VALID,0.333203,
2010-11-09, 00:27:04,VALID,1010.52,VALID,0,VALID,103.68,VALID,0.105969,VALID,23.8286,VALID,71,VALID,0.316016,
2010-11-09, 00:28:04,VALID,1010.51,VALID,0,VALID,103.672,VALID,0.105969,VALID,23.8694,VALID,71,VALID,0.174609,
2010-11-09, 00:29:04,VALID,1010.5,VALID,0,VALID,103.664,VALID,0,VALID,23.8286,VALID,71,VALID,0.447656,
2010-11-09, 00:30:04,VALID,1010.52,VALID,0,VALID,103.664,VALID,0.105969,VALID,23.8286,VALID,71,VALID,0.364844,
2010-11-09, 00:31:04,VALID,1010.48,VALID,0,VALID,103.68,VALID,0.105969,VALID,23.8286,VALID,71,VALID,0.225781,
2010-11-09, 00:32:04,VALID,1010.47,VALID,0,VALID,103.695,VALID,0.105969,VALID,23.8286,VALID,71,VALID,0.102734,
2010-11-09, 00:33:04,VALID,1010.51,VALID,0,VALID,103.664,VALID,0.105969,VALID,23.8481,VALID,71,VALID,0,
2010-11-09, 00:34:04,VALID,1010.45,VALID,0,VALID,103.672,VALID,0,VALID,23.8481,VALID,71,VALID,0,
2010-11-09, 00:35:04,VALID,1010.45,VALID,0,VALID,103.672,VALID,0.105969,VALID,23.8286,VALID,71,VALID,0,
2010-11-09, 00:36:04,VALID,1010.44,VALID,0,VALID,103.664,VALID,0.105969,VALID,23.8304,VALID,71,VALID,0.0222656,
2010-11-09, 00:37:04,VALID,1010.42,VALID,0,VALID,103.687,VALID,0.105969,VALID,23.8304,VALID,71,VALID,0.479688,
2010-11-09, 00:38:04,VALID,1010.42,VALID,0,VALID,103.68,VALID,0.105969,VALID,23.8109,VALID,71,VALID,0.453516,
2010-11-09, 00:39:04,VALID,1010.42,VALID,0,VALID,103.695,VALID,0,VALID,23.8109,VALID,71,VALID,0.432031,
2010-11-09, 00:40:04,VALID,1010.42,VALID,0,VALID,103.687,VALID,0,VALID,23.7701,VALID,71,VALID,0.257422,
2010-11-09, 00:41:04,VALID,1010.42,VALID,0,VALID,103.687,VALID,0.105969,VALID,23.7507,VALID,71,VALID,0.25,
2010-11-09, 00:42:04,VALID,1010.39,VALID,0,VALID,103.672,VALID,0.105969,VALID,23.7701,VALID,71,VALID,0.414453,
2010-11-09, 00:43:04,VALID,1010.37,VALID,0,VALID,103.68,VALID,0,VALID,23.772,VALID,13,VALID,0.383203,
2010-11-09, 00:44:04,VALID,1010.37,VALID,0,VALID,103.68,VALID,0.105969,VALID,23.7507,VALID,13,VALID,0.383984,
2010-11-09, 00:45:04,VALID,1010.34,VALID,0,VALID,103.695,VALID,0.105969,VALID,23.7507,VALID,13,VALID,0.334766,
2010-11-09, 00:46:04,VALID,1010.33,VALID,0,VALID,103.68,VALID,0,VALID,23.772,VALID,13,VALID,0.0847656,
2010-11-09, 00:47:04,VALID,1010.31,VALID,0,VALID,103.687,VALID,0.105969,VALID,23.7525,VALID,13,VALID,0.0675781,
2010-11-09, 00:48:04,VALID,1010.32,VALID,0,VALID,103.672,VALID,0,VALID,23.7525,VALID,13,VALID,0,
2010-11-09, 00:49:04,VALID,1010.3,VALID,0,VALID,103.672,VALID,0,VALID,23.7525,VALID,13,VALID,0.142578,
2010-11-09, 00:50:04,VALID,1010.28,VALID,0,VALID,103.664,VALID,0.105969,VALID,23.7117,VALID,13,VALID,0.196094,
2010-11-09, 00:51:04,VALID,1010.28,VALID,0,VALID,103.672,VALID,0.105969,VALID,23.7117,VALID,13,VALID,0,
2010-11-09, 00:52:04,VALID,1010.3,VALID,0,VALID,103.657,VALID,0,VALID,23.7117,VALID,13,VALID,0,
2010-11-09, 00:53:04,VALID,1010.29,VALID,0,VALID,103.657,VALID,0,VALID,23.7312,VALID,13,VALID,0.107422,
2010-11-09, 00:54:04,VALID,1010.26,VALID,0,VALID,103.626,VALID,0.105969,VALID,23.7312,VALID,13,VALID,0.432031,
2010-11-09, 00:55:04,VALID,1010.3,VALID,0,VALID,103.642,VALID,0.105969,VALID,23.7312,VALID,13,VALID,0.511328,
2010-11-09, 00:56:04,VALID,1010.29,VALID,0,VALID,103.649,VALID,0.105969,VALID,23.7312,VALID,13,VALID,0.330078,
2010-11-09, 00:57:04,VALID,1010.29,VALID,0,VALID,103.634,VALID,0,VALID,23.7525,VALID,13,VALID,0.189063,
2010-11-09, 00:58:04,VALID,1010.32,VALID,0,VALID,103.649,VALID,0,VALID,23.7312,VALID,13,VALID,0.000390625,
2010-11-09, 00:59:04,VALID,1010.31,VALID,0,VALID,103.634,VALID,0,VALID,23.733,VALID,13,VALID,0,
2010-11-09, 01:00:04,VALID,1010.35,VALID,0,VALID,103.626,VALID,0.105969,VALID,23.7312,VALID,13,VALID,0,
2010-11-09, 01:01:04,VALID,1010.35,VALID,0,VALID,103.634,VALID,0,VALID,23.733,VALID,13,VALID,0,
2010-11-09, 01:02:04,VALID,1010.36,VALID,0,VALID,103.634,VALID,0.105969,VALID,23.7117,VALID,13,VALID,0,
2010-11-09, 01:03:04,VALID,1010.36,VALID,0,VALID,103.619,VALID,0,VALID,23.7525,VALID,13,VALID,0,
2010-11-09, 01:04:04,VALID,1010.38,VALID,0,VALID,103.619,VALID,0.105969,VALID,23.7312,VALID,13,VALID,0.0382813,
2010-11-09, 01:05:04,VALID,1010.36,VALID,0,VALID,103.603,VALID,0,VALID,23.7117,VALID,13,VALID,0,
2010-11-09, 01:06:04,VALID,1010.35,VALID,0,VALID,103.603,VALID,0,VALID,23.7525,VALID,13,VALID,0,
2010-11-09, 01:07:04,VALID,1010.36,VALID,0,VALID,103.596,VALID,0,VALID,23.7525,VALID,13,VALID,0,
2010-11-09, 01:08:04,VALID,1010.35,VALID,0,VALID,103.603,VALID,0,VALID,23.772,VALID,13,VALID,0.180078,
2010-11-09, 01:09:04,VALID,1010.35,VALID,0,VALID,103.573,VALID,0,VALID,23.7507,VALID,13,VALID,0,
2010-11-09, 01:10:04,VALID,1010.29,VALID,0,VALID,103.588,VALID,0.105969,VALID,23.7525,VALID,13,VALID,0,
2010-11-09, 01:11:04,VALID,1010.27,VALID,0,VALID,103.603,VALID,0,VALID,23.7312,VALID,13,VALID,0.340625,
2010-11-09, 01:12:04,VALID,1010.22,VALID,0,VALID,103.596,VALID,0,VALID,23.733,VALID,13,VALID,0.379297,
2010-11-09, 01:13:04,VALID,1010.21,VALID,0,VALID,103.603,VALID,0,VALID,23.6922,VALID,13,VALID,0.00273437,
2010-11-09, 01:14:04,VALID,1010.19,VALID,0,VALID,103.573,VALID,0.105969,VALID,23.733,VALID,13,VALID,0.101953,
2010-11-09, 01:15:04,VALID,1010.16,VALID,0,VALID,103.581,VALID,0.105969,VALID,23.733,VALID,13,VALID,0,
2010-11-09, 01:16:04,VALID,1010.14,VALID,0,VALID,103.581,VALID,0.105969,VALID,23.6922,VALID,13,VALID,0,
2010-11-09, 01:17:04,VALID,1010.08,VALID,0,VALID,103.596,VALID,0.105969,VALID,23.694,VALID,77,VALID,0.341016,
2010-11-09, 01:18:04,VALID,1010.06,VALID,0,VALID,103.588,VALID,0,VALID,23.694,VALID,58,VALID,0.495703,
2010-11-09, 01:19:04,VALID,1010.06,VALID,0,VALID,103.596,VALID,0,VALID,23.6745,VALID,58,VALID,0.116406,
2010-11-09, 01:20:04,VALID,1010.03,VALID,0,VALID,103.588,VALID,0,VALID,23.694,VALID,58,VALID,0.243359,
2010-11-09, 01:21:04,VALID,1010.02,VALID,0,VALID,103.588,VALID,0.105969,VALID,23.6727,VALID,58,VALID,0.169531,
2010-11-09, 01:22:04,VALID,1010,VALID,0,VALID,103.596,VALID,0,VALID,23.655,VALID,41,VALID,0.19375,
2010-11-09, 01:23:04,VALID,1009.98,VALID,0,VALID,103.611,VALID,0,VALID,23.655,VALID,19,VALID,0.440625,
2010-11-09, 01:24:04,VALID,1009.91,VALID,0,VALID,103.588,VALID,0.105969,VALID,23.6338,VALID,19,VALID,0.386328,
2010-11-09, 01:25:04,VALID,1009.91,VALID,0,VALID,103.573,VALID,0,VALID,23.6356,VALID,19,VALID,0.333984,
2010-11-09, 01:26:04,VALID,1009.92,VALID,0,VALID,103.603,VALID,0,VALID,23.6161,VALID,28,VALID,0.485938,
2010-11-09, 01:27:04,VALID,1009.91,VALID,0,VALID,103.573,VALID,0,VALID,23.655,VALID,78,VALID,0.600391,
2010-11-09, 01:28:04,VALID,1009.9,VALID,0,VALID,103.573,VALID,0,VALID,23.6161,VALID,50,VALID,0.123047,
2010-11-09, 01:29:04,VALID,1009.93,VALID,0,VALID,103.603,VALID,0,VALID,23.6373,VALID,66,VALID,0.638672,
2010-11-09, 01:30:04,VALID,1009.95,VALID,0,VALID,103.565,VALID,0,VALID,23.6161,VALID,67,VALID,0.487109,
2010-11-09, 01:31:04,VALID,1009.96,VALID,0,VALID,103.588,VALID,0,VALID,23.6161,VALID,61,VALID,0.609766,
2010-11-09, 01:32:04,VALID,1009.97,VALID,0,VALID,103.558,VALID,0,VALID,23.5948,VALID,61,VALID,0.226563,
2010-11-09, 01:33:04,VALID,1009.94,VALID,0,VALID,103.55,VALID,0,VALID,23.6161,VALID,61,VALID,0.376563,
2010-11-09, 01:34:04,VALID,1009.95,VALID,0,VALID,103.535,VALID,0,VALID,23.6161,VALID,61,VALID,0.544922,
2010-11-09, 01:35:04,VALID,1009.94,VALID,0,VALID,103.558,VALID,0,VALID,23.6161,VALID,77,VALID,0.386719,
2010-11-09, 01:36:04,VALID,1009.95,VALID,0,VALID,103.527,VALID,0,VALID,23.6356,VALID,77,VALID,0.392969,
2010-11-09, 01:37:04,VALID,1009.95,VALID,0,VALID,103.512,VALID,0.105969,VALID,23.6143,VALID,77,VALID,0.571875,
2010-11-09, 01:38:04,VALID,1009.94,VALID,0,VALID,103.558,VALID,0,VALID,23.6161,VALID,77,VALID,0.274219,
2010-11-09, 01:39:04,VALID,1009.93,VALID,0,VALID,103.55,VALID,0,VALID,23.5966,VALID,77,VALID,0.250781,
2010-11-09, 01:40:04,VALID,1009.93,VALID,0,VALID,103.535,VALID,0.105969,VALID,23.5948,VALID,77,VALID,0.0996094,
2010-11-09, 01:41:04,VALID,1009.93,VALID,0,VALID,103.52,VALID,0.105969,VALID,23.6161,VALID,82,VALID,0.690234,
2010-11-09, 01:42:04,VALID,1009.93,VALID,0,VALID,103.55,VALID,0,VALID,23.6161,VALID,82,VALID,1.00859,
2010-11-09, 01:43:04,VALID,1009.92,VALID,0,VALID,103.535,VALID,0.105969,VALID,23.5753,VALID,82,VALID,0.667969,
2010-11-09, 01:44:04,VALID,1009.91,VALID,0,VALID,103.527,VALID,0,VALID,23.5966,VALID,100,VALID,0.791016,
2010-11-09, 01:45:04,VALID,1009.92,VALID,0,VALID,103.52,VALID,0,VALID,23.5966,VALID,100,VALID,0.799219,
2010-11-09, 01:46:04,VALID,1009.88,VALID,0,VALID,103.481,VALID,0,VALID,23.6161,VALID,79,VALID,0.746484,
2010-11-09, 01:47:04,VALID,1009.89,VALID,0,VALID,103.466,VALID,0,VALID,23.6356,VALID,90,VALID,0.611328,
2010-11-09, 01:48:04,VALID,1009.89,VALID,0,VALID,103.466,VALID,0,VALID,23.6356,VALID,91,VALID,0.974219,
2010-11-09, 01:49:04,VALID,1009.89,VALID,0,VALID,103.504,VALID,0,VALID,23.6161,VALID,92,VALID,0.95625,
2010-11-09, 01:50:04,VALID,1009.9,VALID,0,VALID,103.497,VALID,0,VALID,23.5966,VALID,91,VALID,0.902344,
2010-11-09, 01:51:04,VALID,1009.89,VALID,0,VALID,103.466,VALID,0,VALID,23.5948,VALID,75,VALID,0.821875,
2010-11-09, 01:52:04,VALID,1009.91,VALID,0,VALID,103.474,VALID,0,VALID,23.5966,VALID,85,VALID,0.801172,
2010-11-09, 01:53:04,VALID,1009.91,VALID,0,VALID,103.466,VALID,0,VALID,23.6161,VALID,82,VALID,0.886719,
2010-11-09, 01:54:04,VALID,1009.91,VALID,0,VALID,103.436,VALID,0,VALID,23.6161,VALID,79,VALID,0.702344,
2010-11-09, 01:55:04,VALID,1009.87,VALID,0,VALID,103.436,VALID,0.105969,VALID,23.5948,VALID,113,VALID,0.915625,
2010-11-09, 01:56:04,VALID,1009.86,VALID,0,VALID,103.413,VALID,0.105969,VALID,23.6143,VALID,114,VALID,0.728516,
2010-11-09, 01:57:04,VALID,1009.85,VALID,0,VALID,103.405,VALID,0.105969,VALID,23.6143,VALID,96,VALID,1.01914,
2010-11-09, 01:58:04,VALID,1009.84,VALID,0,VALID,103.428,VALID,0,VALID,23.6161,VALID,74,VALID,1.15742,
2010-11-09, 01:59:04,VALID,1009.83,VALID,0,VALID,103.42,VALID,0,VALID,23.5948,VALID,83,VALID,0.842969,
2010-11-09, 02:00:04,VALID,1009.81,VALID,0,VALID,103.428,VALID,0,VALID,23.5753,VALID,86,VALID,0.653516,
2010-11-09, 02:01:04,VALID,1009.79,VALID,0,VALID,103.398,VALID,0,VALID,23.5966,VALID,127,VALID,0.466797,
2010-11-09, 02:02:04,VALID,1009.79,VALID,0,VALID,103.382,VALID,0,VALID,23.5948,VALID,113,VALID,0.70625,
2010-11-09, 02:03:04,VALID,1009.77,VALID,0,VALID,103.382,VALID,0.105969,VALID,23.5966,VALID,88,VALID,1.05313,
2010-11-09, 02:04:04,VALID,1009.74,VALID,0,VALID,103.375,VALID,0,VALID,23.5948,VALID,91,VALID,0.689062,
2010-11-09, 02:05:04,VALID,1009.73,VALID,0,VALID,103.344,VALID,0.105969,VALID,23.6143,VALID,102,VALID,0.887109,
2010-11-09, 02:06:04,VALID,1009.75,VALID,0,VALID,103.352,VALID,0,VALID,23.5948,VALID,121,VALID,0.681641,
2010-11-09, 02:07:04,VALID,1009.74,VALID,0,VALID,103.352,VALID,0,VALID,23.5753,VALID,114,VALID,0.905859,
2010-11-09, 02:08:04,VALID,1009.75,VALID,0,VALID,103.367,VALID,0,VALID,23.6161,VALID,117,VALID,0.671094,
2010-11-09, 02:09:04,VALID,1009.72,VALID,0,VALID,103.337,VALID,0,VALID,23.6143,VALID,66,VALID,0.869531,
2010-11-09, 02:10:04,VALID,1009.69,VALID,0,VALID,103.352,VALID,0,VALID,23.6161,VALID,66,VALID,0.988672,
2010-11-09, 02:11:04,VALID,1009.72,VALID,0,VALID,103.352,VALID,0,VALID,23.5966,VALID,66,VALID,0.482422,
2010-11-09, 02:12:04,VALID,1009.67,VALID,0,VALID,103.367,VALID,0.105969,VALID,23.5948,VALID,71,VALID,0.557813,
2010-11-09, 02:13:04,VALID,1009.67,VALID,0,VALID,103.344,VALID,0,VALID,23.5966,VALID,71,VALID,0.530078,
2010-11-09, 02:14:04,VALID,1009.65,VALID,0.5,VALID,103.321,VALID,0,VALID,23.6161,VALID,77,VALID,0.196875,
2010-11-09, 02:15:04,VALID,1009.64,VALID,0,VALID,103.306,VALID,0,VALID,23.6161,VALID,77,VALID,0.223828,
2010-11-09, 02:16:04,VALID,1009.63,VALID,0,VALID,103.321,VALID,0,VALID,23.6161,VALID,79,VALID,0.606641,
2010-11-09, 02:17:04,VALID,1009.61,VALID,0,VALID,103.344,VALID,0.105969,VALID,23.5948,VALID,93,VALID,0.659766,
2010-11-09, 02:18:04,VALID,1009.6,VALID,0,VALID,103.298,VALID,0,VALID,23.6356,VALID,82,VALID,0.2,
2010-11-09, 02:19:04,VALID,1009.62,VALID,0,VALID,103.321,VALID,0,VALID,23.5966,VALID,71,VALID,0.685156,
2010-11-09, 02:20:04,VALID,1009.61,VALID,0,VALID,103.337,VALID,0,VALID,23.5966,VALID,37,VALID,0.405078,
2010-11-09, 02:21:04,VALID,1009.6,VALID,0,VALID,103.314,VALID,0,VALID,23.5753,VALID,43,VALID,0.617969,
2010-11-09, 02:22:04,VALID,1009.62,VALID,0,VALID,103.329,VALID,0,VALID,23.5966,VALID,65,VALID,0.616406,
2010-11-09, 02:23:04,VALID,1009.61,VALID,0,VALID,103.329,VALID,0,VALID,23.5771,VALID,71,VALID,0.887109,
2010-11-09, 02:24:04,VALID,1009.6,VALID,0,VALID,103.314,VALID,0,VALID,23.5966,VALID,89,VALID,0.707031,
2010-11-09, 02:25:04,VALID,1009.62,VALID,0,VALID,103.306,VALID,0,VALID,23.5771,VALID,98,VALID,0.630859,
2010-11-09, 02:26:04,VALID,1009.58,VALID,0,VALID,103.283,VALID,0,VALID,23.5753,VALID,82,VALID,0.696875,
2010-11-09, 02:27:04,VALID,1009.6,VALID,0,VALID,103.26,VALID,0,VALID,23.6161,VALID,83,VALID,0.691406,
2010-11-09, 02:28:04,VALID,1009.59,VALID,0,VALID,103.298,VALID,0,VALID,23.5966,VALID,91,VALID,0.898828,
2010-11-09, 02:29:04,VALID,1009.57,VALID,0,VALID,103.298,VALID,0.105969,VALID,23.5948,VALID,88,VALID,0.53125,
2010-11-09, 02:30:04,VALID,1009.54,VALID,0,VALID,103.321,VALID,0,VALID,23.6161,VALID,82,VALID,0.766016,
2010-11-09, 02:31:04,VALID,1009.53,VALID,0,VALID,103.298,VALID,0,VALID,23.5948,VALID,60,VALID,0.541406,
2010-11-09, 02:32:04,VALID,1009.51,VALID,0,VALID,103.298,VALID,0,VALID,23.6161,VALID,66,VALID,0.438281,
2010-11-09, 02:33:04,VALID,1009.47,VALID,0,VALID,103.314,VALID,0,VALID,23.5948,VALID,87,VALID,0.553516,
2010-11-09, 02:34:04,VALID,1009.48,VALID,0,VALID,103.306,VALID,0,VALID,23.5966,VALID,101,VALID,0.855078,
2010-11-09, 02:35:04,VALID,1009.45,VALID,0,VALID,103.329,VALID,0,VALID,23.5966,VALID,39,VALID,0.474609,
2010-11-09, 02:36:04,VALID,1009.44,VALID,0,VALID,103.298,VALID,0,VALID,23.6161,VALID,38,VALID,0.533594,
2010-11-09, 02:37:04,VALID,1009.44,VALID,0,VALID,103.298,VALID,0.105969,VALID,23.5948,VALID,37,VALID,0.152344,
2010-11-09, 02:38:04,VALID,1009.47,VALID,0,VALID,103.306,VALID,0,VALID,23.6161,VALID,37,VALID,0.0375,
2010-11-09, 02:39:04,VALID,1009.48,VALID,0,VALID,103.344,VALID,0.105969,VALID,23.6161,VALID,61,VALID,0.346484,
2010-11-09, 02:40:04,VALID,1009.5,VALID,0,VALID,103.321,VALID,0,VALID,23.5966,VALID,80,VALID,0.482031,
2010-11-09, 02:41:04,VALID,1009.49,VALID,0,VALID,103.337,VALID,0.105969,VALID,23.5753,VALID,79,VALID,0.230078,
2010-11-09, 02:42:04,VALID,1009.51,VALID,0,VALID,103.321,VALID,0.105969,VALID,23.5753,VALID,80,VALID,0.732422,
2010-11-09, 02:43:04,VALID,1009.51,VALID,0,VALID,103.329,VALID,0,VALID,23.5966,VALID,80,VALID,0.239453,
2010-11-09, 02:44:04,VALID,1009.49,VALID,0,VALID,103.337,VALID,0,VALID,23.5966,VALID,76,VALID,0.435547,
2010-11-09, 02:45:04,VALID,1009.52,VALID,0,VALID,103.344,VALID,0.105969,VALID,23.5753,VALID,74,VALID,0.291797,
2010-11-09, 02:46:04,VALID,1009.5,VALID,0,VALID,103.352,VALID,0,VALID,23.5948,VALID,66,VALID,0.461719,
2010-11-09, 02:47:04,VALID,1009.51,VALID,0,VALID,103.359,VALID,0,VALID,23.5771,VALID,59,VALID,0.297266,
2010-11-09, 02:48:04,VALID,1009.49,VALID,0,VALID,103.375,VALID,0.105969,VALID,23.5966,VALID,59,VALID,0.333594,
2010-11-09, 02:49:04,VALID,1009.5,VALID,0,VALID,103.359,VALID,0.105969,VALID,23.5966,VALID,59,VALID,0.150781,
2010-11-09, 02:50:04,VALID,1009.47,VALID,0,VALID,103.39,VALID,0,VALID,23.5966,VALID,59,VALID,0,
2010-11-09, 02:51:04,VALID,1009.47,VALID,0,VALID,103.382,VALID,0,VALID,23.5753,VALID,59,VALID,0,
2010-11-09, 02:52:04,VALID,1009.45,VALID,0,VALID,103.405,VALID,0,VALID,23.5771,VALID,59,VALID,0,
2010-11-09, 02:53:04,VALID,1009.45,VALID,0,VALID,103.405,VALID,0,VALID,23.5771,VALID,59,VALID,0,
2010-11-09, 02:54:04,VALID,1009.46,VALID,0,VALID,103.382,VALID,0,VALID,23.5558,VALID,59,VALID,0,
2010-11-09, 02:55:04,VALID,1009.44,VALID,0,VALID,103.398,VALID,0.105969,VALID,23.5558,VALID,59,VALID,0,
2010-11-09, 02:56:04,VALID,1009.45,VALID,0,VALID,103.398,VALID,0,VALID,23.5771,VALID,59,VALID,0,
2010-11-09, 02:57:04,VALID,1009.46,VALID,0,VALID,103.382,VALID,0,VALID,23.5966,VALID,59,VALID,0,
2010-11-09, 02:58:04,VALID,1009.5,VALID,0,VALID,103.39,VALID,0.105969,VALID,23.5771,VALID,59,VALID,0,
2010-11-09, 02:59:04,VALID,1009.5,VALID,0,VALID,103.413,VALID,0.105969,VALID,23.5771,VALID,59,VALID,0,
2010-11-09, 03:00:04,VALID,1009.49,VALID,0,VALID,103.413,VALID,0,VALID,23.5771,VALID,59,VALID,0,
2010-11-09, 03:01:04,VALID,1009.48,VALID,0,VALID,103.42,VALID,0.105969,VALID,23.5576,VALID,59,VALID,0,
2010-11-09, 03:02:04,VALID,1009.45,VALID,0,VALID,103.436,VALID,0,VALID,23.5558,VALID,59,VALID,0.114063,
2010-11-09, 03:03:04,VALID,1009.4,VALID,0,VALID,103.428,VALID,0,VALID,23.5558,VALID,59,VALID,0.244531,
2010-11-09, 03:04:04,VALID,1009.41,VALID,0,VALID,103.428,VALID,0.105969,VALID,23.5558,VALID,59,VALID,0.2,
2010-11-09, 03:05:04,VALID,1009.41,VALID,0,VALID,103.382,VALID,0,VALID,23.5558,VALID,59,VALID,0.364062,
2010-11-09, 03:06:04,VALID,1009.39,VALID,0,VALID,103.39,VALID,0,VALID,23.5771,VALID,59,VALID,0.2375,
2010-11-09, 03:07:04,VALID,1009.41,VALID,0,VALID,103.42,VALID,0.105969,VALID,23.5771,VALID,59,VALID,0.0238281,
2010-11-09, 03:08:04,VALID,1009.39,VALID,0,VALID,103.405,VALID,0.105969,VALID,23.5558,VALID,59,VALID,0.0554687,
2010-11-09, 03:09:04,VALID,1009.41,VALID,0,VALID,103.451,VALID,0,VALID,23.5576,VALID,59,VALID,0,
2010-11-09, 03:10:04,VALID,1009.39,VALID,0,VALID,103.451,VALID,0.105969,VALID,23.5169,VALID,59,VALID,0.00195313,
2010-11-09, 03:11:04,VALID,1009.37,VALID,0,VALID,103.443,VALID,0,VALID,23.5169,VALID,59,VALID,0,
2010-11-09, 03:12:04,VALID,1009.36,VALID,0,VALID,103.42,VALID,0,VALID,23.5169,VALID,59,VALID,0,
2010-11-09, 03:13:04,VALID,1009.36,VALID,0,VALID,103.428,VALID,0,VALID,23.5169,VALID,59,VALID,0.354688,
2010-11-09, 03:14:04,VALID,1009.36,VALID,0,VALID,103.443,VALID,0.105969,VALID,23.5169,VALID,59,VALID,0.260547,
2010-11-09, 03:15:04,VALID,1009.32,VALID,0,VALID,103.42,VALID,0,VALID,23.5169,VALID,59,VALID,0.276953,
2010-11-09, 03:16:04,VALID,1009.34,VALID,0,VALID,103.451,VALID,0,VALID,23.5169,VALID,59,VALID,0.320703,
2010-11-09, 03:17:04,VALID,1009.35,VALID,0,VALID,103.443,VALID,0,VALID,23.5381,VALID,49,VALID,0.547266,
2010-11-09, 03:18:04,VALID,1009.35,VALID,0,VALID,103.428,VALID,0.105969,VALID,23.4974,VALID,48,VALID,0.214453,
2010-11-09, 03:19:04,VALID,1009.33,VALID,0,VALID,103.443,VALID,0,VALID,23.4974,VALID,48,VALID,0.379687,
2010-11-09, 03:20:04,VALID,1009.33,VALID,0,VALID,103.451,VALID,0.105969,VALID,23.5169,VALID,48,VALID,0.364453,
2010-11-09, 03:21:04,VALID,1009.31,VALID,0,VALID,103.428,VALID,0.105969,VALID,23.5186,VALID,48,VALID,0.475,
2010-11-09, 03:22:04,VALID,1009.33,VALID,0,VALID,103.436,VALID,0.105969,VALID,23.5186,VALID,48,VALID,0.337891,
2010-11-09, 03:23:04,VALID,1009.31,VALID,0,VALID,103.451,VALID,0,VALID,23.4992,VALID,48,VALID,0.299219,
2010-11-09, 03:24:04,VALID,1009.32,VALID,0,VALID,103.436,VALID,0,VALID,23.4992,VALID,49,VALID,0.677344,
2010-11-09, 03:25:04,VALID,1009.31,VALID,0,VALID,103.481,VALID,0,VALID,23.5204,VALID,72,VALID,0.544141,
2010-11-09, 03:26:04,VALID,1009.35,VALID,0,VALID,103.436,VALID,0,VALID,23.5009,VALID,57,VALID,0.613672,
2010-11-09, 03:27:04,VALID,1009.36,VALID,0,VALID,103.466,VALID,0,VALID,23.5009,VALID,28,VALID,0.369141,
2010-11-09, 03:28:04,VALID,1009.37,VALID,0,VALID,103.489,VALID,0,VALID,23.5009,VALID,28,VALID,0,
2010-11-09, 03:29:04,VALID,1009.35,VALID,0,VALID,103.481,VALID,0,VALID,23.4602,VALID,28,VALID,0.225,
2010-11-09, 03:30:04,VALID,1009.33,VALID,0,VALID,103.459,VALID,0,VALID,23.5009,VALID,28,VALID,0.123047,
2010-11-09, 03:31:04,VALID,1009.34,VALID,0,VALID,103.459,VALID,0,VALID,23.4815,VALID,28,VALID,0.421875,
2010-11-09, 03:32:04,VALID,1009.39,VALID,0,VALID,103.466,VALID,0,VALID,23.5009,VALID,28,VALID,0.196094,
2010-11-09, 03:33:04,VALID,1009.39,VALID,0,VALID,103.436,VALID,0,VALID,23.5009,VALID,73,VALID,0.721484,
2010-11-09, 03:34:04,VALID,1009.38,VALID,0,VALID,103.443,VALID,0,VALID,23.5009,VALID,73,VALID,0.415234,
2010-11-09, 03:35:04,VALID,1009.4,VALID,0,VALID,103.428,VALID,0,VALID,23.4992,VALID,73,VALID,0.639063,
2010-11-09, 03:36:04,VALID,1009.38,VALID,0,VALID,103.436,VALID,0,VALID,23.5381,VALID,73,VALID,0.460547,
2010-11-09, 03:37:04,VALID,1009.37,VALID,0,VALID,103.42,VALID,0,VALID,23.5186,VALID,109,VALID,0.559375,
2010-11-09, 03:38:04,VALID,1009.35,VALID,0,VALID,103.443,VALID,0,VALID,23.5381,VALID,124,VALID,0.821875,
2010-11-09, 03:39:04,VALID,1009.36,VALID,0,VALID,103.436,VALID,0,VALID,23.5381,VALID,127,VALID,0.435547,
2010-11-09, 03:40:04,VALID,1009.36,VALID,0,VALID,103.413,VALID,0,VALID,23.5363,VALID,134,VALID,0.622656,
2010-11-09, 03:41:04,VALID,1009.35,VALID,0,VALID,103.443,VALID,0,VALID,23.5381,VALID,121,VALID,0.442187,
2010-11-09, 03:42:04,VALID,1009.37,VALID,0,VALID,103.474,VALID,0.105969,VALID,23.4974,VALID,121,VALID,0.514063,
2010-11-09, 03:43:04,VALID,1009.38,VALID,0,VALID,103.489,VALID,0,VALID,23.4974,VALID,121,VALID,0.617969,